Regional Weather Roundup
Issued by NWS

Home | Current Version | Previous Version | Text Only | Print | Product List | Glossary On
Versions: 1 2 3 4 5 6 7 8 9 10 11 12 13 14 15 16 17 18 19 20 21 22 23 24 25 26 27 28 29 30 31 32 33 34 35 36 37 38 39 40 41 42 43 44 45 46 47 48 49 50
000
ASUS43 KOAX 230110
RWRNE

WEATHER ROUNDUP FOR NEBRASKA
NATIONAL WEATHER SERVICE OMAHA NE
800 PM CDT WED OCT 22 2014

NOTES: SATELLITE DATA IS BEING USED TO AUGMENT CLOUD COVER ABOVE
       12000 FEET.
       "FAIR" INDICATES FEW OR NO CLOUDS BELOW 12,000 FEET WITH NO
       SIGNIFICANT WEATHER AND/OR OBSTRUCTIONS TO VISIBILITY.

  * THESE STATIONS DO NOT REPORT WEATHER SUCH AS RAIN...SNOW OR FOG.

NEZ001>004-019>022-054>056-230200-
NEBRASKA PANHANDLE

CITY           SKY/WX    TMP DP  RH WIND       PRES   REMARKS
SCOTTSBLUFF    CLEAR     55  26  32 VRB6      30.06R
ALLIANCE       PTCLDY    46  31  55 SE5       30.06R
CHADRON        CLEAR     46  33  60 S7        30.03R
KIMBALL        CLOUDY    52  34  50 SE6       30.10R
SIDNEY         CLOUDY    50  37  61 E3        30.10R
$$

NEZ057>060-069>072-079>082-230200-
SOUTHWEST NEBRASKA

CITY           SKY/WX    TMP DP  RH WIND       PRES   REMARKS
NORTH PLATTE   CLEAR     54  49  83 CALM      30.04R
IMPERIAL       CLEAR     59  34  39 NW5       30.06R
LEXINGTON      CLEAR     56  53  89 NE3       30.04R
MCCOOK         CLEAR     59  50  72 E6        30.03R
OGALLALA       PTCLDY    53  36  53 CALM      30.07R
$$

NEZ005>010-023>029-035>040-094-230200-
NORTH CENTRAL NEBRASKA

CITY           SKY/WX    TMP DP  RH WIND       PRES   REMARKS
VALENTINE      CLEAR     51  40  65 CALM      30.04R
AINSWORTH      CLEAR     49  42  76 CALM      30.05R
BROKEN BOW     CLEAR     51  49  92 N5        30.04R
O`NEILL        PTCLDY    53  52  97 CALM      30.03S
ORD            PTCLDY    54  53  97 NW3       30.02R
THEDFORD       PTCLDY    55  45  69 CALM      30.06R
$$

NEZ041-046>049-061>064-073>077-083>087-230200-
SOUTH CENTRAL NEBRASKA

CITY           SKY/WX    TMP DP  RH WIND       PRES   REMARKS
GRAND ISLAND   MOCLDY    60  58  92 VRB3      30.03R FOG
AURORA         CLOUDY    61  61  99 CALM      30.03R
HASTINGS       CLOUDY    62  57  83 S3        30.02R
HEBRON         LGT RAIN  62  58  86 S7        30.04S
HOLDREGE       PTCLDY    53  51  92 CALM      30.02R FOG
KEARNEY *      PTCLDY    57  55  94 CALM      30.03R
YORK           CLOUDY    63  59  88 SE7       30.03S
$$

NEZ011>018-030>034-042>045-230200-
NORTHEAST NEBRASKA

CITY           SKY/WX    TMP DP  RH WIND       PRES   REMARKS
NORFOLK        CLOUDY    59  58  96 CALM      30.02R
ALBION         CLOUDY    59  57  93 CALM      30.02S
BLAIR          RAIN      64  61  91 W10G17    30.06R
COLUMBUS *     CLOUDY    61  57  88 S6        30.04R
FREMONT        HVY RAIN  64  61  88 S7        30.06S
TEKAMAH        RAIN      63  60  90 SW14      30.02F FOG
WAYNE          CLOUDY    59  57  94 CALM      30.03R
$$

NEZ050>053-065>068-078-088>093-230200-
SOUTHEAST NEBRASKA

CITY           SKY/WX    TMP DP  RH WIND       PRES   REMARKS
LINCOLN        LGT RAIN  62  60  93 N9        30.06R FOG
OMAHA EPPLEY   LGT RAIN  64  61  90 CALM      30.07R FOG
BEATRICE       RAIN      63  59  87 S18       30.05R
FALLS CITY     LGT RAIN  66  56  70 SE9       30.05R
NEBRASKA CITY  CLOUDY    69  51  54 S16       30.04S
PLATTSMOUTH    CLOUDY    67  57  71 NW8       30.06R
$$

NEZ044-045-051>053-067-230200-
OMAHA AREA

CITY           SKY/WX    TMP DP  RH WIND       PRES   REMARKS
OMAHA EPPLEY   LGT RAIN  64  61  90 CALM      30.07R FOG
BLAIR          RAIN      64  61  91 W10G17    30.06R
FREMONT        HVY RAIN  64  61  88 S7        30.06S
MILLARD        RAIN      64  62  93 NW7       30.05S
OFFUTT AFB     LGT RAIN  64  64 100 NW8       30.06R FOG
PLATTSMOUTH    CLOUDY    67  57  71 NW8       30.06R
WAHOO          RAIN      63  60  91 NW5       30.06S
$$



USA.gov is the U.S. government's official web portal to all federal, state and local government web resources and services.